Weather History for Rolla, ND

Change the Weather History Date:

Monday, November 19, 2012

  Actual Average (KRUG) Record (KRUG)
Temperature  
Mean Temperature 32 °F -  
Max Temperature 41 °F 31 °F 57 °F (1989)
Min Temperature 23 °F 16 °F -21 °F (1978)
Degree Days  
Heating Degree Days 33    
Moisture  
Dew Point 29 °F    
Average Humidity 90    
Maximum Humidity 100    
Minimum Humidity 61    
Precipitation  
Precipitation 0.00 in - - ()
Sea Level Pressure  
Sea Level Pressure 30.02 in    
Wind  
Wind Speed 10 mph (West)    
Max Wind Speed 22 mph    
Max Gust Speed 29 mph    
Visibility 10 miles    
Events Fog , Rain    
Averages and records for this station are not official NWS values.
T = Trace of Precipitation, MM = Missing Value Source: NWS Daily Summary

Daily Weather History Graph

Daily Weather History Graph

Search for Another Location

Airport:

Trip Planner

Search our weather history database for the weather conditions in past years. The results will help you decide how hot, cold, wet, or windy it might be!

Date:

Astronomy

Nov. 19, 2012 Rise Set
Actual Time 7:54 AM CST 4:52 PM CST
Civil Twilight 7:19 AM CST 5:28 PM CST
Nautical Twilight 6:40 AM CST 6:06 PM CST
Astronomical Twilight 6:03 AM CST 6:44 PM CST
Moon 12:46 PM CST (11/19) 11:36 PM CST (11/19)
Length of Visible Light 10h 08m
Length of Day
8h 58m
Waxing Crescent, 41% of the Moon is Illuminated
Nov 19
Waxing Crescent
Nov 20
First Quarter
Nov 28
Full
Dec 6
Last Quarter
Dec 13
New

Hourly Weather History & Observations

Time (CST) Temp. Windchill Dew Point Humidity Pressure Visibility Wind Dir Wind Speed Gust Speed Precip Events Conditions
12:15 AM 32.0 °F 27.5 °F 32.0 °F 100% 29.85 in 0.5 mi SW 4.6 mph - N/A Fog Light Freezing Fog
12:35 AM 32.0 °F 28.7 °F 32.0 °F 100% 29.85 in 1.0 mi ESE 3.5 mph - N/A   Overcast
12:55 AM 32.0 °F 24.2 °F 32.0 °F 100% 29.84 in 2.0 mi West 9.2 mph - N/A Rain Light Rain
1:15 AM 32.0 °F 21.6 °F 32.0 °F 100% 29.85 in 3.0 mi WSW 15.0 mph - N/A   Mostly Cloudy
1:35 AM 33.8 °F 24.3 °F 33.8 °F 100% 29.85 in 8.0 mi West 13.8 mph - N/A   Mostly Cloudy
1:55 AM 33.8 °F 27.0 °F 33.8 °F 100% 29.86 in 10.0 mi West 8.1 mph - N/A   Overcast
2:15 AM 33.8 °F 29.6 °F 33.8 °F 100% 29.88 in 10.0 mi West 4.6 mph - N/A   Mostly Cloudy
2:35 AM 32.0 °F 23.6 °F 32.0 °F 100% 29.88 in 10.0 mi WNW 10.4 mph - N/A   Mostly Cloudy
2:55 AM 33.8 °F 25.8 °F 33.8 °F 100% 29.89 in 10.0 mi NW 10.4 mph - N/A   Scattered Clouds
3:15 AM 35.6 °F 27.1 °F 35.6 °F 100% 29.90 in 10.0 mi NW 12.7 mph - N/A   Clear
3:35 AM 35.6 °F 26.2 °F 33.8 °F 93% 29.90 in 10.0 mi NW 15.0 mph - N/A   Clear
3:55 AM 33.8 °F 23.2 °F 33.8 °F 100% 29.90 in 10.0 mi NW 17.3 mph - N/A   Clear
4:15 AM 35.6 °F 24.2 °F 33.8 °F 93% 29.91 in 10.0 mi NW 21.9 mph - N/A   Clear
4:35 AM 35.6 °F 24.2 °F 32.0 °F 87% 29.92 in 10.0 mi NNW 21.9 mph 28.8 mph N/A   Scattered Clouds
4:55 AM 32.0 °F 20.8 °F 32.0 °F 100% 29.93 in 10.0 mi NNW 17.3 mph 21.9 mph N/A   Partly Cloudy
5:15 AM 33.8 °F 22.8 °F 32.0 °F 93% 29.93 in 10.0 mi NNW 18.4 mph - N/A   Clear
5:35 AM 33.8 °F 23.9 °F 32.0 °F 93% 29.93 in 10.0 mi NW 15.0 mph - N/A   Partly Cloudy
6:15 AM 33.8 °F 23.2 °F 32.0 °F 93% 29.94 in 10.0 mi NNW 17.3 mph - N/A   Scattered Clouds
6:35 AM 33.8 °F 22.8 °F 30.2 °F 87% 29.95 in 10.0 mi NNW 18.4 mph - N/A   Clear
6:55 AM 33.8 °F 23.2 °F 30.2 °F 87% 29.96 in 10.0 mi NNW 17.3 mph - N/A   Clear
7:35 AM 32.0 °F 21.2 °F 30.2 °F 93% 29.96 in 10.0 mi NNW 16.1 mph - N/A   Clear
7:55 AM 32.0 °F 21.6 °F 28.4 °F 87% 29.97 in 10.0 mi NW 15.0 mph - N/A   Clear
8:15 AM 33.8 °F 23.9 °F 28.4 °F 81% 29.98 in 10.0 mi NW 15.0 mph - N/A   Clear
8:35 AM 32.0 °F 22.5 °F 28.4 °F 87% 29.99 in 10.0 mi NW 12.7 mph - N/A   Clear
8:55 AM 35.6 °F 27.1 °F 26.6 °F 70% 30.00 in 10.0 mi NW 12.7 mph - N/A   Clear
9:15 AM 33.8 °F 28.6 °F 26.6 °F 75% 30.01 in 10.0 mi NW 5.8 mph - N/A   Clear
9:35 AM 35.6 °F 27.5 °F 26.6 °F 70% 30.02 in 10.0 mi NW 11.5 mph - N/A   Clear
9:55 AM 35.6 °F 28.0 °F 26.6 °F 70% 30.03 in 10.0 mi NW 10.4 mph - N/A   Clear
10:15 AM 35.6 °F 27.1 °F 26.6 °F 70% 30.03 in 10.0 mi NNW 12.7 mph - N/A   Clear
10:35 AM 35.6 °F 26.6 °F 28.4 °F 75% 30.04 in 10.0 mi NNW 13.8 mph - N/A   Clear
10:55 AM 37.4 °F 29.3 °F 28.4 °F 70% 30.04 in 10.0 mi NNW 12.7 mph - N/A   Clear
11:15 AM 37.4 °F 30.3 °F 28.4 °F 70% 30.05 in 10.0 mi NNW 10.4 mph - N/A   Clear
11:35 AM 37.4 °F 30.3 °F 30.2 °F 75% 30.06 in 10.0 mi NNW 10.4 mph - N/A   Clear
11:55 AM 37.4 °F 30.3 °F 30.2 °F 75% 30.06 in 10.0 mi NNW 10.4 mph - N/A   Clear
12:15 PM 37.4 °F 30.8 °F 30.2 °F 75% 30.07 in 10.0 mi NNW 9.2 mph - N/A   Clear
12:35 PM 37.4 °F 30.3 °F 32.0 °F 81% 30.07 in 10.0 mi NW 10.4 mph - N/A   Clear
12:55 PM 39.2 °F 34.2 °F 30.2 °F 70% 30.08 in 10.0 mi NNW 6.9 mph - N/A   Clear
1:15 PM 41.0 °F 35.8 °F 28.4 °F 61% 30.08 in 10.0 mi NNW 8.1 mph - N/A   Clear
1:35 PM 39.2 °F 35.0 °F 30.2 °F 70% 30.08 in 10.0 mi NW 5.8 mph - N/A   Clear
1:55 PM 39.2 °F - 28.4 °F 65% 30.08 in 10.0 mi Calm Calm - N/A   Clear
2:15 PM 37.4 °F 33.8 °F 32.0 °F 81% 30.09 in 10.0 mi SSW 4.6 mph - N/A   Clear
2:35 PM 35.6 °F 32.8 °F 32.0 °F 87% 30.09 in 10.0 mi SSW 3.5 mph - N/A   Clear
2:55 PM 33.8 °F 29.6 °F 32.0 °F 93% 30.09 in 10.0 mi SW 4.6 mph - N/A   Clear
3:15 PM 35.6 °F 30.7 °F 32.0 °F 87% 30.09 in 10.0 mi SW 5.8 mph - N/A   Clear
3:35 PM 37.4 °F 32.8 °F 30.2 °F 75% 30.09 in 10.0 mi SW 5.8 mph - N/A   Clear
3:55 PM 35.6 °F 29.9 °F 30.2 °F 81% 30.09 in 10.0 mi SW 6.9 mph - N/A   Clear
4:15 PM 33.8 °F 27.7 °F 28.4 °F 81% 30.10 in 10.0 mi SW 6.9 mph - N/A   Clear
4:35 PM 32.0 °F 28.7 °F 26.6 °F 80% 30.10 in 10.0 mi SSW 3.5 mph - N/A   Clear
4:55 PM 30.2 °F - 28.4 °F 93% 30.10 in 10.0 mi Calm Calm - N/A   Clear
5:15 PM 28.4 °F 22.2 °F 28.4 °F 100% 30.10 in 10.0 mi South 5.8 mph - N/A   Clear
5:35 PM 28.4 °F 23.3 °F 28.4 °F 100% 30.11 in 10.0 mi SSW 4.6 mph - N/A   Clear
5:55 PM 26.6 °F 22.6 °F 26.6 °F 100% 30.11 in 10.0 mi South 3.5 mph - N/A   Clear
6:15 PM 26.6 °F 20.0 °F 26.6 °F 100% 30.11 in 10.0 mi South 5.8 mph - N/A   Clear
6:35 PM 23.0 °F 15.8 °F 23.0 °F 100% 30.10 in 10.0 mi South 5.8 mph - N/A   Clear
6:55 PM 23.0 °F 15.8 °F 23.0 °F 100% 30.11 in 10.0 mi SSW 5.8 mph - N/A   Clear
7:15 PM 23.0 °F 14.7 °F 23.0 °F 100% 30.11 in 10.0 mi South 6.9 mph - N/A   Clear
7:35 PM 23.0 °F 13.9 °F 23.0 °F 100% 30.11 in 10.0 mi SSW 8.1 mph - N/A   Clear
7:55 PM 24.8 °F 16.9 °F 24.8 °F 100% 30.10 in 10.0 mi SSW 6.9 mph - N/A   Clear
8:15 PM 23.0 °F 17.0 °F 23.0 °F 100% 30.09 in 10.0 mi SW 4.6 mph - N/A   Clear
8:35 PM 23.0 °F 14.7 °F 23.0 °F 100% 30.09 in 10.0 mi SSW 6.9 mph - N/A   Clear
8:55 PM 24.8 °F 14.6 °F 24.8 °F 100% 30.09 in 10.0 mi SSW 10.4 mph - N/A   Clear
9:15 PM 24.8 °F 14.6 °F 24.8 °F 100% 30.09 in 10.0 mi SW 10.4 mph - N/A   Clear
9:35 PM 24.8 °F 14.0 °F 24.8 °F 100% 30.09 in 10.0 mi SSW 11.5 mph - N/A   Clear
9:55 PM 24.8 °F 14.6 °F 24.8 °F 100% 30.10 in 10.0 mi SSW 10.4 mph - N/A   Clear
10:15 PM 24.8 °F 14.6 °F 24.8 °F 100% 30.10 in 10.0 mi SSW 10.4 mph - N/A   Clear
10:35 PM 24.8 °F 15.3 °F 24.8 °F 100% 30.08 in 10.0 mi SSW 9.2 mph - N/A   Clear
10:55 PM 26.6 °F 16.2 °F 26.6 °F 100% 30.08 in 10.0 mi SW 11.5 mph - N/A   Clear
11:15 PM 28.4 °F 18.0 °F 28.4 °F 100% 30.07 in 10.0 mi SW 12.7 mph - N/A   Clear
11:35 PM 28.4 °F 18.5 °F 28.4 °F 100% 30.08 in 10.0 mi SSW 11.5 mph - N/A   Clear
11:55 PM 28.4 °F 20.4 °F 28.4 °F 100% 30.08 in 10.0 mi SSW 8.1 mph - N/A   Clear